Time,TemperatureF,DewpointF,PressureIn,WindDirection,WindDirectionDegrees,WindSpeedMPH,WindSpeedGustMPH,Humidity,HourlyPrecipIn,Conditions,Clouds,dailyrainin,SoftwareType,DateUTC
2013-05-21 00:00:00,57.0,48.7,30.16,NW,315,0.0,0.0,74,0.00,,,0.00,WUHU216HW,2013-05-20 22:00:00,
2013-05-21 00:05:00,57.2,48.9,30.16,West,270,0.0,0.0,74,0.00,,,0.00,WUHU216HW,2013-05-20 22:05:00,
2013-05-21 00:10:00,57.0,48.7,30.16,NNW,338,0.0,0.0,74,0.00,,,0.00,WUHU216HW,2013-05-20 22:10:00,
2013-05-21 00:15:00,56.8,48.5,30.15,NNW,338,0.0,0.0,74,0.00,,,0.00,WUHU216HW,2013-05-20 22:15:00,
2013-05-21 00:20:00,56.4,48.2,30.15,NNW,338,0.0,0.0,74,0.00,,,0.00,WUHU216HW,2013-05-20 22:20:00,
2013-05-21 00:25:00,56.4,48.5,30.15,NW,315,0.0,0.0,75,0.00,,,0.00,WUHU216HW,2013-05-20 22:25:00,
2013-05-21 00:30:00,56.4,48.5,30.15,NW,315,0.0,0.0,75,0.00,,,0.00,WUHU216HW,2013-05-20 22:30:00,
2013-05-21 00:35:00,56.3,48.4,30.15,NNW,338,0.0,0.0,75,0.00,,,0.00,WUHU216HW,2013-05-20 22:35:00,
2013-05-21 00:40:00,56.3,48.4,30.15,NW,315,0.0,0.0,75,0.00,,,0.00,WUHU216HW,2013-05-20 22:40:00,
2013-05-21 00:45:00,56.1,48.2,30.15,NNW,338,0.0,0.0,75,0.00,,,0.00,WUHU216HW,2013-05-20 22:45:00,
2013-05-21 00:50:00,56.1,48.2,30.14,North,0,0.0,0.0,75,0.00,,,0.00,WUHU216HW,2013-05-20 22:50:00,
2013-05-21 00:55:00,56.1,48.2,30.14,North,0,0.0,0.0,75,0.00,,,0.00,WUHU216HW,2013-05-20 22:55:00,
2013-05-21 01:01:00,55.9,48.0,30.14,North,0,0.8,0.8,75,0.00,,,0.00,WUHU216HW,2013-05-20 23:01:00,
2013-05-21 01:06:00,55.5,47.7,30.15,WNW,293,0.0,0.8,75,0.00,,,0.00,WUHU216HW,2013-05-20 23:06:00,
2013-05-21 01:11:00,55.4,47.5,30.15,WSW,248,0.0,0.0,75,0.00,,,0.00,WUHU216HW,2013-05-20 23:11:00,
2013-05-21 01:16:00,55.5,47.7,30.14,SW,225,0.0,0.0,75,0.00,,,0.00,WUHU216HW,2013-05-20 23:16:00,
2013-05-21 01:21:00,55.9,48.0,30.15,WNW,293,0.0,0.0,75,0.00,,,0.00,WUHU216HW,2013-05-20 23:21:00,
2013-05-21 01:26:00,56.1,48.2,30.15,NNW,338,0.0,0.0,75,0.00,,,0.00,WUHU216HW,2013-05-20 23:26:00,
2013-05-21 01:31:00,55.2,47.3,30.15,NNW,338,0.0,2.0,75,0.00,,,0.00,WUHU216HW,2013-05-20 23:31:00,
2013-05-21 01:36:00,54.5,47.0,30.15,NNE,23,0.0,2.0,76,0.00,,,0.00,WUHU216HW,2013-05-20 23:36:00,
2013-05-21 01:41:00,54.3,47.2,30.15,ENE,68,0.0,0.0,77,0.00,,,0.00,WUHU216HW,2013-05-20 23:41:00,
2013-05-21 01:46:00,54.3,47.2,30.14,ENE,68,0.0,0.0,77,0.00,,,0.00,WUHU216HW,2013-05-20 23:46:00,
2013-05-21 01:51:00,54.6,47.5,30.14,NE,45,0.0,0.0,77,0.00,,,0.00,WUHU216HW,2013-05-20 23:51:00,
2013-05-21 01:56:00,54.6,47.2,30.15,NE,45,0.0,0.0,76,0.00,,,0.00,WUHU216HW,2013-05-20 23:56:00,
2013-05-21 02:01:00,54.8,47.3,30.14,East,90,0.0,0.0,76,0.00,,,0.00,WUHU216HW,2013-05-21 00:01:00,
2013-05-21 02:06:00,55.0,47.5,30.14,NNW,338,0.0,0.0,76,0.00,,,0.00,WUHU216HW,2013-05-21 00:06:00,
2013-05-21 02:11:00,54.6,47.2,30.13,North,0,0.0,0.0,76,0.00,,,0.00,WUHU216HW,2013-05-21 00:11:00,
2013-05-21 02:16:00,54.5,47.4,30.13,East,90,0.0,0.0,77,0.00,,,0.00,WUHU216HW,2013-05-21 00:16:00,
2013-05-21 02:21:00,54.5,47.4,30.13,North,0,0.8,0.8,77,0.00,,,0.00,WUHU216HW,2013-05-21 00:21:00,
2013-05-21 02:26:00,54.1,46.7,30.13,NNW,338,0.0,1.1,76,0.00,,,0.00,WUHU216HW,2013-05-21 00:26:00,
2013-05-21 02:31:00,53.7,46.3,30.12,NNW,338,0.0,0.0,76,0.00,,,0.00,WUHU216HW,2013-05-21 00:31:00,
2013-05-21 02:36:00,53.7,46.7,30.12,NNW,338,0.0,0.0,77,0.00,,,0.00,WUHU216HW,2013-05-21 00:36:00,
2013-05-21 02:41:00,53.7,46.7,30.12,NW,315,0.0,0.0,77,0.00,,,0.00,WUHU216HW,2013-05-21 00:41:00,
2013-05-21 02:46:00,53.7,46.7,30.11,WSW,248,0.0,0.0,77,0.00,,,0.00,WUHU216HW,2013-05-21 00:46:00,
2013-05-21 02:51:00,54.1,46.7,30.11,West,270,0.0,0.0,76,0.00,,,0.00,WUHU216HW,2013-05-21 00:51:00,
2013-05-21 02:57:00,54.1,46.7,30.12,West,270,0.0,0.0,76,0.00,,,0.00,WUHU216HW,2013-05-21 00:57:00,
2013-05-21 03:02:00,54.1,46.7,30.11,SW,225,0.0,0.0,76,0.00,,,0.00,WUHU216HW,2013-05-21 01:02:00,
2013-05-21 03:07:00,53.7,46.3,30.11,North,0,0.0,0.0,76,0.00,,,0.00,WUHU216HW,2013-05-21 01:07:00,
2013-05-21 03:12:00,53.4,46.4,30.11,ENE,68,0.0,0.0,77,0.00,,,0.00,WUHU216HW,2013-05-21 01:12:00,
2013-05-21 03:17:00,53.4,46.4,30.10,North,0,0.0,0.0,77,0.00,,,0.00,WUHU216HW,2013-05-21 01:17:00,
2013-05-21 03:22:00,53.4,46.4,30.10,North,0,0.0,0.0,77,0.00,,,0.00,WUHU216HW,2013-05-21 01:22:00,
2013-05-21 03:27:00,53.2,46.2,30.10,WSW,248,0.0,0.0,77,0.00,,,0.00,WUHU216HW,2013-05-21 01:27:00,
2013-05-21 03:32:00,53.4,46.4,30.10,WNW,293,0.0,0.0,77,0.00,,,0.00,WUHU216HW,2013-05-21 01:32:00,
2013-05-21 03:37:00,53.2,46.2,30.10,NNW,338,0.0,0.0,77,0.00,,,0.00,WUHU216HW,2013-05-21 01:37:00,
2013-05-21 03:42:00,52.8,45.8,30.10,North,0,0.0,0.0,77,0.00,,,0.00,WUHU216HW,2013-05-21 01:42:00,
2013-05-21 03:47:00,52.7,45.6,30.10,NNE,23,0.0,0.0,77,0.00,,,0.00,WUHU216HW,2013-05-21 01:47:00,
2013-05-21 03:52:00,52.8,45.8,30.10,North,0,2.0,2.0,77,0.00,,,0.00,WUHU216HW,2013-05-21 01:52:00,
2013-05-21 03:57:00,52.7,45.6,30.10,NE,45,0.0,2.0,77,0.00,,,0.00,WUHU216HW,2013-05-21 01:57:00,
2013-05-21 04:02:00,52.5,45.5,30.10,East,90,0.0,0.8,77,0.00,,,0.00,WUHU216HW,2013-05-21 02:02:00,
2013-05-21 04:07:00,52.8,45.8,30.10,East,90,0.0,0.0,77,0.00,,,0.00,WUHU216HW,2013-05-21 02:07:00,
2013-05-21 04:12:00,53.4,46.4,30.10,NE,45,0.0,0.0,77,0.00,,,0.00,WUHU216HW,2013-05-21 02:12:00,
2013-05-21 04:17:00,53.4,46.4,30.09,ENE,68,0.0,0.6,77,0.00,,,0.00,WUHU216HW,2013-05-21 02:17:00,
2013-05-21 04:22:00,53.4,46.4,30.10,NNE,23,0.0,0.6,77,0.00,,,0.00,WUHU216HW,2013-05-21 02:22:00,
2013-05-21 04:27:00,52.8,45.8,30.10,NNW,338,2.0,2.0,77,0.00,,,0.00,WUHU216HW,2013-05-21 02:27:00,
2013-05-21 04:32:00,51.9,44.9,30.10,NNW,338,0.0,2.0,77,0.00,,,0.00,WUHU216HW,2013-05-21 02:32:00,
2013-05-21 04:37:00,51.4,44.4,30.09,NNW,338,0.0,1.5,77,0.00,,,0.00,WUHU216HW,2013-05-21 02:37:00,
2013-05-21 04:42:00,51.2,44.2,30.10,North,0,1.5,1.5,77,0.00,,,0.00,WUHU216HW,2013-05-21 02:42:00,
2013-05-21 04:49:00,50.5,43.5,30.10,North,0,0.0,1.7,77,0.00,,,0.00,WUHU216HW,2013-05-21 02:49:00,
2013-05-21 04:54:00,50.3,43.3,30.09,NNE,23,1.1,1.5,77,0.00,,,0.00,WUHU216HW,2013-05-21 02:54:00,
2013-05-21 04:59:00,50.5,43.5,30.09,East,90,2.2,4.0,77,0.00,,,0.00,WUHU216HW,2013-05-21 02:59:00,
2013-05-21 05:04:00,51.6,44.6,30.09,East,90,3.1,4.0,77,0.00,,,0.00,WUHU216HW,2013-05-21 03:04:00,
2013-05-21 05:09:00,52.3,44.6,30.08,East,90,1.3,3.1,75,0.00,,,0.00,WUHU216HW,2013-05-21 03:09:00,
2013-05-21 05:14:00,53.2,45.1,30.09,North,0,0.0,2.2,74,0.00,,,0.00,WUHU216HW,2013-05-21 03:14:00,
2013-05-21 05:19:00,53.2,45.5,30.08,NE,45,0.0,2.0,75,0.00,,,0.00,WUHU216HW,2013-05-21 03:19:00,
2013-05-21 05:24:00,52.8,45.5,30.08,East,90,0.0,0.0,76,0.00,,,0.00,WUHU216HW,2013-05-21 03:24:00,
2013-05-21 05:29:00,53.2,45.5,30.08,East,90,0.0,0.0,75,0.00,,,0.00,WUHU216HW,2013-05-21 03:29:00,
2013-05-21 05:34:00,53.2,45.5,30.08,NNE,23,0.0,0.0,75,0.00,,,0.00,WUHU216HW,2013-05-21 03:34:00,
2013-05-21 05:39:00,53.2,45.5,30.08,North,0,0.0,0.0,75,0.00,,,0.00,WUHU216HW,2013-05-21 03:39:00,
2013-05-21 05:44:00,52.8,45.5,30.09,ENE,68,0.0,0.0,76,0.00,,,0.00,WUHU216HW,2013-05-21 03:44:00,
2013-05-21 05:49:00,52.5,45.1,30.09,East,90,0.8,0.8,76,0.00,,,0.00,WUHU216HW,2013-05-21 03:49:00,
2013-05-21 05:54:00,52.7,45.3,30.09,East,90,2.0,2.4,76,0.00,,,0.00,WUHU216HW,2013-05-21 03:54:00,
2013-05-21 05:59:00,53.2,45.1,30.09,ENE,68,1.1,2.4,74,0.00,,,0.00,WUHU216HW,2013-05-21 03:59:00,
2013-05-21 06:02:00,53.4,45.3,30.09,ESE,113,0.0,2.4,74,0.00,,,0.00,WUHU216HW,2013-05-21 04:02:00,
2013-05-21 06:03:00,53.6,45.5,30.09,ESE,113,0.0,2.0,74,0.00,,,0.00,WUHU216HW,2013-05-21 04:03:00,
2013-05-21 06:08:00,54.3,45.4,30.09,SE,135,1.1,1.3,72,0.00,,,0.00,WUHU216HW,2013-05-21 04:08:00,
2013-05-21 06:13:00,54.6,45.8,30.08,ESE,113,0.0,1.3,72,0.00,,,0.00,WUHU216HW,2013-05-21 04:13:00,
2013-05-21 06:18:00,55.0,45.8,30.09,ESE,113,0.0,1.7,71,0.00,,,0.00,WUHU216HW,2013-05-21 04:18:00,
2013-05-21 06:23:00,55.2,46.3,30.09,ESE,113,1.5,2.0,72,0.00,,,0.00,WUHU216HW,2013-05-21 04:23:00,
2013-05-21 06:28:00,55.4,46.5,30.09,ESE,113,0.0,2.0,72,0.00,,,0.00,WUHU216HW,2013-05-21 04:28:00,
2013-05-21 06:33:00,56.1,46.8,30.09,East,90,0.0,1.3,71,0.00,,,0.00,WUHU216HW,2013-05-21 04:33:00,
2013-05-21 06:38:00,56.8,47.4,30.09,ESE,113,0.0,0.0,71,0.00,,,0.00,WUHU216HW,2013-05-21 04:38:00,
2013-05-21 06:43:00,57.0,47.3,30.09,SW,225,0.0,0.0,70,0.00,,,0.00,WUHU216HW,2013-05-21 04:43:00,
2013-05-21 06:48:00,57.3,47.6,30.10,NW,315,0.0,0.0,70,0.00,,,0.00,WUHU216HW,2013-05-21 04:48:00,
2013-05-21 06:53:00,57.9,48.0,30.09,NNW,338,0.0,0.0,70,0.00,,,0.00,WUHU216HW,2013-05-21 04:53:00,
2013-05-21 06:58:00,57.3,48.0,30.09,NNW,338,0.0,0.6,71,0.00,,,0.00,WUHU216HW,2013-05-21 04:58:00,
2013-05-21 07:03:00,56.8,47.4,30.09,NW,315,0.0,0.6,71,0.00,,,0.00,WUHU216HW,2013-05-21 05:03:00,
2013-05-21 07:08:00,56.4,47.5,30.09,NW,315,0.0,0.0,71,0.00,,,0.00,WUHU216HW,2013-05-21 05:08:00,
2013-05-21 07:14:00,56.4,47.5,30.09,WNW,293,0.0,0.0,72,0.00,,,0.00,WUHU216HW,2013-05-21 05:14:00,
2013-05-21 07:19:00,56.4,47.5,30.08,WNW,293,0.0,0.0,72,0.00,,,0.00,WUHU216HW,2013-05-21 05:19:00,
2013-05-21 07:24:00,57.0,48.0,30.08,WNW,293,0.0,0.0,72,0.00,,,0.00,WUHU216HW,2013-05-21 05:24:00,
2013-05-21 07:29:00,57.3,48.0,30.08,WNW,293,0.6,0.6,71,0.00,,,0.00,WUHU216HW,2013-05-21 05:29:00,
2013-05-21 07:34:00,57.3,47.6,30.08,NW,315,0.0,1.1,70,0.00,,,0.00,WUHU216HW,2013-05-21 05:34:00,
2013-05-21 07:39:00,57.7,48.0,30.08,NW,315,0.0,1.1,70,0.00,,,0.00,WUHU216HW,2013-05-21 05:39:00,
2013-05-21 07:44:00,58.1,48.3,30.07,NE,45,0.9,1.3,70,0.00,,,0.00,WUHU216HW,2013-05-21 05:44:00,
2013-05-21 07:49:00,58.8,48.6,30.07,NW,315,0.8,1.3,69,0.00,,,0.00,WUHU216HW,2013-05-21 05:49:00,
2013-05-21 07:54:00,59.1,49.0,30.07,WNW,293,0.0,0.8,69,0.00,,,0.00,WUHU216HW,2013-05-21 05:54:00,
2013-05-21 07:59:00,59.1,49.0,30.08,WNW,293,0.0,1.3,69,0.00,,,0.00,WUHU216HW,2013-05-21 05:59:00,
2013-05-21 08:04:00,59.9,49.3,30.07,WNW,293,0.0,1.3,68,0.00,,,0.00,WUHU216HW,2013-05-21 06:04:00,
2013-05-21 08:09:00,60.9,50.0,30.07,WNW,293,0.0,0.0,67,0.00,,,0.00,WUHU216HW,2013-05-21 06:09:00,
2013-05-21 08:14:00,63.6,50.7,30.07,NNW,338,0.0,0.0,63,0.00,,,0.00,WUHU216HW,2013-05-21 06:14:00,
2013-05-21 08:19:00,63.1,49.8,30.07,North,0,2.2,2.2,62,0.00,,,0.00,WUHU216HW,2013-05-21 06:19:00,
2013-05-21 08:24:00,62.4,49.6,30.07,NE,45,0.0,2.2,63,0.00,,,0.00,WUHU216HW,2013-05-21 06:24:00,
2013-05-21 08:29:00,62.4,50.4,30.07,NNE,23,1.5,2.4,65,0.00,,,0.00,WUHU216HW,2013-05-21 06:29:00,
2013-05-21 08:34:00,62.2,50.7,30.07,NNW,338,1.5,2.4,66,0.00,,,0.00,WUHU216HW,2013-05-21 06:34:00,
2013-05-21 08:39:00,62.4,50.8,30.06,North,0,1.3,2.2,66,0.00,,,0.00,WUHU216HW,2013-05-21 06:39:00,
2013-05-21 08:44:00,62.2,49.4,30.06,North,0,0.0,2.4,63,0.00,,,0.00,WUHU216HW,2013-05-21 06:44:00,
2013-05-21 08:50:00,62.4,49.6,30.06,NNW,338,2.0,2.4,63,0.00,,,0.00,WUHU216HW,2013-05-21 06:50:00,
2013-05-21 08:55:00,62.7,49.5,30.06,North,0,2.6,2.6,62,0.00,,,0.00,WUHU216HW,2013-05-21 06:55:00,
2013-05-21 09:00:00,62.7,49.5,30.05,North,0,1.7,2.6,62,0.00,,,0.00,WUHU216HW,2013-05-21 07:00:00,
2013-05-21 09:05:00,63.5,49.7,30.05,North,352,1.1,2.6,61,0.00,,,0.00,WUHU216HW,2013-05-21 07:05:00,
2013-05-21 09:10:00,64.0,49.3,30.05,NNW,338,1.3,1.5,59,0.00,,,0.00,WUHU216HW,2013-05-21 07:10:00,
2013-05-21 09:15:00,65.4,49.8,30.05,West,270,1.7,1.7,57,0.00,,,0.00,WUHU216HW,2013-05-21 07:15:00,
2013-05-21 09:20:00,65.8,49.1,30.06,West,270,0.0,1.7,55,0.00,,,0.00,WUHU216HW,2013-05-21 07:20:00,
2013-05-21 09:25:00,66.3,48.2,30.06,NNW,338,0.0,1.7,52,0.00,,,0.00,WUHU216HW,2013-05-21 07:25:00,
2013-05-21 09:30:00,66.7,48.0,30.06,WNW,293,0.0,0.0,51,0.00,,,0.00,WUHU216HW,2013-05-21 07:30:00,
2013-05-21 09:35:00,67.6,47.2,30.05,NNW,338,1.5,2.0,48,0.00,,,0.00,WUHU216HW,2013-05-21 07:35:00,
2013-05-21 09:40:00,68.5,46.8,30.04,ENE,68,1.7,3.1,46,0.00,,,0.00,WUHU216HW,2013-05-21 07:40:00,
2013-05-21 09:45:00,69.4,47.6,30.04,NNW,338,0.0,4.0,46,0.00,,,0.00,WUHU216HW,2013-05-21 07:45:00,
2013-05-21 09:50:00,70.1,47.1,30.04,North,0,3.8,4.0,43,0.00,,,0.00,WUHU216HW,2013-05-21 07:50:00,
2013-05-21 09:55:00,69.6,46.0,30.04,North,0,2.8,4.0,43,0.00,,,0.00,WUHU216HW,2013-05-21 07:55:00,
2013-05-21 10:00:00,69.4,46.4,30.04,NE,45,1.5,3.8,44,0.00,,,0.00,WUHU216HW,2013-05-21 08:00:00,
2013-05-21 10:05:00,70.1,47.7,30.04,NNE,23,1.7,1.7,45,0.00,,,0.00,WUHU216HW,2013-05-21 08:05:00,
2013-05-21 10:10:00,70.3,47.8,30.04,WNW,293,2.0,3.5,45,0.00,,,0.00,WUHU216HW,2013-05-21 08:10:00,
2013-05-21 10:15:00,70.3,48.6,30.04,WNW,293,1.0,3.5,46,0.00,,,0.00,WUHU216HW,2013-05-21 08:15:00,
2013-05-21 10:20:00,71.2,48.6,30.04,WNW,299,2.1,2.9,46,0.00,,,0.00,WUHU216HW,2013-05-21 08:20:00,
2013-05-21 10:25:00,71.7,49.1,30.04,WSW,248,0.0,2.9,45,0.00,,,0.00,WUHU216HW,2013-05-21 08:25:00,
2013-05-21 10:30:00,71.7,47.9,30.04,WNW,293,2.0,3.5,43,0.00,,,0.00,WUHU216HW,2013-05-21 08:30:00,
2013-05-21 10:35:00,71.6,47.2,30.04,North,0,0.0,3.5,42,0.00,,,0.00,WUHU216HW,2013-05-21 08:35:00,
2013-05-21 10:40:00,71.9,48.1,30.04,North,0,2.0,2.2,43,0.00,,,0.00,WUHU216HW,2013-05-21 08:40:00,
2013-05-21 10:45:00,72.8,47.7,30.03,WNW,293,2.0,2.2,41,0.00,,,0.00,WUHU216HW,2013-05-21 08:45:00,
2013-05-21 10:50:00,73.5,47.8,30.04,NNE,24,1.6,2.0,40,0.00,,,0.00,WUHU216HW,2013-05-21 08:50:00,
2013-05-21 10:55:00,73.9,47.3,30.03,NW,315,3.1,3.1,39,0.00,,,0.00,WUHU216HW,2013-05-21 08:55:00,
2013-05-21 11:00:00,73.5,47.8,30.03,NW,315,1.4,3.1,40,0.00,,,0.00,WUHU216HW,2013-05-21 09:00:00,
2013-05-21 11:05:00,73.9,48.1,30.03,NNW,338,0.8,1.7,40,0.00,,,0.00,WUHU216HW,2013-05-21 09:05:00,
2013-05-21 11:10:00,74.8,48.9,30.02,NW,315,0.0,1.3,40,0.00,,,0.00,WUHU216HW,2013-05-21 09:10:00,
2013-05-21 11:15:00,75.5,48.6,30.02,NNW,338,0.0,1.5,39,0.00,,,0.00,WUHU216HW,2013-05-21 09:15:00,
2013-05-21 11:20:00,75.7,48.0,30.02,NE,45,0.8,1.5,38,0.00,,,0.00,WUHU216HW,2013-05-21 09:20:00,
2013-05-21 11:25:00,76.1,47.0,30.02,ENE,68,1.7,2.2,36,0.00,,,0.00,WUHU216HW,2013-05-21 09:25:00,
2013-05-21 11:30:00,76.8,48.4,30.02,SSW,203,1.7,2.2,37,0.00,,,0.00,WUHU216HW,2013-05-21 09:30:00,
2013-05-21 11:35:00,77.5,48.4,30.02,SE,135,2.9,2.9,37,0.00,,,0.00,WUHU216HW,2013-05-21 09:35:00,
2013-05-21 11:40:00,78.4,47.5,30.02,NNW,338,2.2,2.9,34,0.00,,,0.00,WUHU216HW,2013-05-21 09:40:00,
2013-05-21 11:45:00,77.5,47.5,30.02,WNW,293,2.6,2.9,34,0.00,,,0.00,WUHU216HW,2013-05-21 09:45:00,
2013-05-21 11:50:00,76.8,46.9,30.01,NW,315,3.1,3.1,35,0.00,,,0.00,WUHU216HW,2013-05-21 09:50:00,
2013-05-21 11:55:00,77.1,46.9,30.01,WSW,240,4.6,6.0,35,0.00,,,0.00,WUHU216HW,2013-05-21 09:55:00,
2013-05-21 12:00:00,76.6,47.5,30.01,WNW,293,2.0,6.0,36,0.00,,,0.00,WUHU216HW,2013-05-21 10:00:00,
2013-05-21 12:05:00,76.8,48.4,30.00,WSW,248,0.0,2.9,37,0.00,,,0.00,WUHU216HW,2013-05-21 10:05:00,
2013-05-21 12:10:00,77.9,47.8,30.00,West,263,1.5,2.0,35,0.00,,,0.00,WUHU216HW,2013-05-21 10:10:00,
2013-05-21 12:15:00,77.3,47.4,30.00,WSW,248,0.0,3.5,35,0.00,,,0.00,WUHU216HW,2013-05-21 10:15:00,
2013-05-21 12:20:00,77.7,46.9,30.00,SW,225,3.0,8.5,34,0.00,,,0.00,WUHU216HW,2013-05-21 10:20:00,
2013-05-21 12:25:00,78.0,48.0,29.99,West,270,3.8,8.5,35,0.00,,,0.00,WUHU216HW,2013-05-21 10:25:00,
2013-05-21 12:30:00,78.6,46.9,29.99,SW,236,2.4,3.8,33,0.00,,,0.00,WUHU216HW,2013-05-21 10:30:00,
2013-05-21 12:36:00,79.7,48.6,29.99,SSE,158,2.0,3.5,34,0.00,,,0.00,WUHU216HW,2013-05-21 10:36:00,
2013-05-21 12:41:00,80.0,46.6,29.98,South,172,2.8,6.0,31,0.00,,,0.00,WUHU216HW,2013-05-21 10:41:00,
2013-05-21 12:46:00,80.4,47.0,29.98,SW,225,6.7,6.7,31,0.00,,,0.00,WUHU216HW,2013-05-21 10:46:00,
2013-05-21 12:51:00,80.4,45.1,29.98,WSW,248,4.0,7.8,29,0.00,,,0.00,WUHU216HW,2013-05-21 10:51:00,
2013-05-21 12:56:00,80.4,44.1,29.98,SW,225,6.9,11.8,28,0.00,,,0.00,WUHU216HW,2013-05-21 10:56:00,
2013-05-21 13:01:00,81.5,45.0,29.98,East,90,4.9,11.8,28,0.00,,,0.00,WUHU216HW,2013-05-21 11:01:00,
2013-05-21 13:06:00,82.2,46.6,29.97,West,270,3.3,6.0,29,0.00,,,0.00,WUHU216HW,2013-05-21 11:06:00,
2013-05-21 13:11:00,82.0,45.4,29.97,SW,216,4.3,6.9,28,0.00,,,0.00,WUHU216HW,2013-05-21 11:11:00,
2013-05-21 13:16:00,81.6,45.1,29.97,SSW,193,6.7,7.6,28,0.00,,,0.00,WUHU216HW,2013-05-21 11:16:00,
2013-05-21 13:21:00,80.9,44.6,29.97,SE,135,7.8,9.8,28,0.00,,,0.00,WUHU216HW,2013-05-21 11:21:00,
2013-05-21 13:26:00,81.6,45.1,29.97,SSE,158,3.8,9.8,28,0.00,,,0.00,WUHU216HW,2013-05-21 11:26:00,
2013-05-21 13:31:00,82.0,44.4,29.96,SSE,147,6.4,6.9,26,0.00,,,0.00,WUHU216HW,2013-05-21 11:31:00,
2013-05-21 13:37:00,81.6,44.1,29.96,SE,135,5.3,6.9,27,0.00,,,0.00,WUHU216HW,2013-05-21 11:37:00,
2013-05-21 13:42:00,82.2,44.5,29.96,South,180,6.2,6.2,27,0.00,,,0.00,WUHU216HW,2013-05-21 11:42:00,
2013-05-21 13:47:00,81.5,42.9,29.96,SSE,159,8.6,9.1,26,0.00,,,0.00,WUHU216HW,2013-05-21 11:47:00,
2013-05-21 13:52:00,81.1,42.6,29.96,SSE,155,6.4,9.1,26,0.00,,,0.00,WUHU216HW,2013-05-21 11:52:00,
2013-05-21 13:57:00,81.3,42.8,29.95,SSE,156,5.4,9.1,26,0.00,,,0.00,WUHU216HW,2013-05-21 11:57:00,
2013-05-21 14:02:00,80.9,42.5,29.95,SSE,158,6.2,7.6,26,0.00,,,0.00,WUHU216HW,2013-05-21 12:02:00,
2013-05-21 14:07:00,80.9,42.5,29.95,South,170,5.1,7.6,26,0.00,,,0.00,WUHU216HW,2013-05-21 12:07:00,
2013-05-21 14:12:00,80.4,42.0,29.95,SSE,158,4.0,6.0,26,0.00,,,0.00,WUHU216HW,2013-05-21 12:12:00,
2013-05-21 14:17:00,80.4,42.0,29.95,ESE,119,2.9,7.1,26,0.00,,,0.00,WUHU216HW,2013-05-21 12:17:00,
2013-05-21 14:22:00,80.2,42.9,29.95,ENE,68,6.2,7.1,27,0.00,,,0.00,WUHU216HW,2013-05-21 12:22:00,
2013-05-21 14:27:00,79.8,41.5,29.95,SSE,164,4.6,10.5,26,0.00,,,0.00,WUHU216HW,2013-05-21 12:27:00,
2013-05-21 14:32:00,80.2,41.9,29.94,SE,135,8.5,10.5,26,0.00,,,0.00,WUHU216HW,2013-05-21 12:32:00,
2013-05-21 14:37:00,80.4,42.0,29.95,ESE,113,3.1,8.5,26,0.00,,,0.00,WUHU216HW,2013-05-21 12:37:00,
2013-05-21 14:42:00,80.2,41.9,29.95,SE,135,5.2,10.0,26,0.00,,,0.00,WUHU216HW,2013-05-21 12:42:00,
2013-05-21 14:47:00,80.2,41.9,29.96,South,180,5.8,10.0,26,0.00,,,0.00,WUHU216HW,2013-05-21 12:47:00,
2013-05-21 14:52:00,79.5,42.2,29.96,SE,136,1.4,8.2,27,0.00,,,0.00,WUHU216HW,2013-05-21 12:52:00,
2013-05-21 14:57:00,79.1,41.9,29.96,SSE,158,6.7,7.8,27,0.00,,,0.00,WUHU216HW,2013-05-21 12:57:00,
2013-05-21 15:02:00,78.6,42.5,29.96,SSE,158,9.1,9.6,28,0.00,,,0.00,WUHU216HW,2013-05-21 13:02:00,
2013-05-21 15:07:00,78.0,42.1,29.94,ESE,113,6.2,9.6,28,0.00,,,0.00,WUHU216HW,2013-05-21 13:07:00,
2013-05-21 15:12:00,77.7,42.8,29.94,East,101,3.2,7.6,29,0.00,,,0.00,WUHU216HW,2013-05-21 13:12:00,
2013-05-21 15:17:00,77.7,43.9,29.95,ESE,113,2.2,7.6,30,0.00,,,0.00,WUHU216HW,2013-05-21 13:17:00,
2013-05-21 15:22:00,77.9,44.8,29.95,SSW,203,3.8,5.1,31,0.00,,,0.00,WUHU216HW,2013-05-21 13:22:00,
2013-05-21 15:27:00,77.7,44.6,29.95,South,172,3.0,5.3,31,0.00,,,0.00,WUHU216HW,2013-05-21 13:27:00,
2013-05-21 15:32:00,77.5,43.7,29.96,South,180,7.2,9.1,30,0.00,,,0.00,WUHU216HW,2013-05-21 13:32:00,
2013-05-21 15:37:00,77.3,44.3,29.96,NE,45,0.0,9.1,31,0.00,,,0.00,WUHU216HW,2013-05-21 13:37:00,
2013-05-21 15:42:00,77.5,43.7,29.96,WSW,248,7.6,7.6,30,0.00,,,0.00,WUHU216HW,2013-05-21 13:42:00,
2013-05-21 15:47:00,76.4,43.6,29.96,SW,230,3.6,7.6,31,0.00,,,0.00,WUHU216HW,2013-05-21 13:47:00,
2013-05-21 15:52:00,75.7,43.7,29.96,SW,225,6.4,6.9,32,0.00,,,0.00,WUHU216HW,2013-05-21 13:52:00,
2013-05-21 15:57:00,75.3,43.3,29.96,SSW,203,8.0,8.0,32,0.00,,,0.00,WUHU216HW,2013-05-21 13:57:00,
2013-05-21 16:02:00,75.0,43.0,29.96,SW,230,3.8,10.5,32,0.00,,,0.00,WUHU216HW,2013-05-21 14:02:00,
2013-05-21 16:07:00,75.3,43.3,29.96,West,270,6.7,10.5,32,0.00,,,0.00,WUHU216HW,2013-05-21 14:07:00,
2013-05-21 16:12:00,75.5,43.5,29.96,South,182,2.3,7.3,32,0.00,,,0.00,WUHU216HW,2013-05-21 14:12:00,
2013-05-21 16:17:00,76.2,44.2,29.96,SSE,158,4.2,5.8,32,0.00,,,0.00,WUHU216HW,2013-05-21 14:17:00,
2013-05-21 16:24:00,76.2,44.2,29.96,SW,236,3.2,4.6,32,0.00,,,0.00,WUHU216HW,2013-05-21 14:24:00,
2013-05-21 16:29:00,75.5,43.5,29.96,SSW,200,8.8,9.6,32,0.00,,,0.00,WUHU216HW,2013-05-21 14:29:00,
2013-05-21 16:34:00,75.0,43.8,29.96,South,180,9.6,10.0,33,0.00,,,0.00,WUHU216HW,2013-05-21 14:34:00,
2013-05-21 16:39:00,75.0,44.5,29.96,SSW,203,7.6,10.0,34,0.00,,,0.00,WUHU216HW,2013-05-21 14:39:00,
2013-05-21 16:44:00,74.8,45.9,29.96,SSW,210,5.6,14.3,36,0.00,,,0.00,WUHU216HW,2013-05-21 14:44:00,
2013-05-21 16:49:00,74.1,45.2,29.96,SSW,203,12.0,14.3,36,0.00,,,0.00,WUHU216HW,2013-05-21 14:49:00,
2013-05-21 16:54:00,73.9,46.6,29.96,WSW,248,5.5,12.0,38,0.00,,,0.00,WUHU216HW,2013-05-21 14:54:00,
2013-05-21 16:59:00,73.2,48.2,29.97,SW,214,8.6,12.9,41,0.00,,,0.00,WUHU216HW,2013-05-21 14:59:00,
2013-05-21 17:04:00,71.9,50.5,29.97,SW,225,11.6,12.9,47,0.00,,,0.00,WUHU216HW,2013-05-21 15:04:00,
2013-05-21 17:09:00,70.3,52.3,29.97,SSE,158,4.9,11.6,53,0.00,,,0.00,WUHU216HW,2013-05-21 15:09:00,
2013-05-21 17:14:00,68.9,51.6,29.96,SSE,160,6.6,11.8,54,0.00,,,0.00,WUHU216HW,2013-05-21 15:14:00,
2013-05-21 17:19:00,67.2,51.9,29.97,SSE,157,5.0,11.8,59,0.02,,,0.02,WUHU216HW,2013-05-21 15:19:00,
2013-05-21 17:24:00,66.3,52.1,29.97,South,171,5.6,6.9,60,0.02,,,0.02,WUHU216HW,2013-05-21 15:24:00,
2013-05-21 17:29:00,65.8,51.6,29.97,South,174,4.0,6.9,60,0.02,,,0.02,WUHU216HW,2013-05-21 15:29:00,
2013-05-21 17:34:00,65.8,52.4,29.97,ESE,113,0.0,6.4,62,0.02,,,0.02,WUHU216HW,2013-05-21 15:34:00,
2013-05-21 17:39:00,65.4,52.0,29.98,South,180,2.4,2.4,63,0.02,,,0.02,WUHU216HW,2013-05-21 15:39:00,
2013-05-21 17:44:00,65.4,52.9,29.99,SSE,158,2.4,2.4,64,0.02,,,0.02,WUHU216HW,2013-05-21 15:44:00,
2013-05-21 17:49:00,65.1,52.5,29.98,WSW,248,0.0,2.4,64,0.02,,,0.02,WUHU216HW,2013-05-21 15:49:00,
2013-05-21 17:54:00,64.9,52.4,29.98,ESE,113,0.0,1.7,64,0.02,,,0.02,WUHU216HW,2013-05-21 15:54:00,
2013-05-21 17:59:00,64.4,54.2,29.97,ENE,68,2.8,3.1,69,0.02,,,0.02,WUHU216HW,2013-05-21 15:59:00,
2013-05-21 18:04:00,64.0,54.5,29.96,NE,45,4.4,4.4,71,0.02,,,0.02,WUHU216HW,2013-05-21 16:04:00,
2013-05-21 18:09:00,63.3,54.8,29.96,ENE,61,1.4,8.7,74,0.02,,,0.02,WUHU216HW,2013-05-21 16:09:00,
2013-05-21 18:14:00,63.3,54.5,29.95,SE,135,2.4,8.7,73,0.02,,,0.02,WUHU216HW,2013-05-21 16:14:00,
2013-05-21 18:19:00,63.3,54.5,29.94,ESE,113,3.5,5.1,73,0.00,,,0.02,WUHU216HW,2013-05-21 16:19:00,
2013-05-21 18:24:00,63.5,53.9,29.93,SSE,158,2.2,5.1,72,0.00,,,0.02,WUHU216HW,2013-05-21 16:24:00,
2013-05-21 18:29:00,64.0,54.1,29.94,North,0,1.5,3.8,70,0.00,,,0.02,WUHU216HW,2013-05-21 16:29:00,
2013-05-21 18:34:00,63.8,55.7,29.94,WNW,293,5.1,5.1,75,0.00,,,0.02,WUHU216HW,2013-05-21 16:34:00,
2013-05-21 18:39:00,63.3,55.2,29.94,North,0,3.1,5.1,75,0.00,,,0.02,WUHU216HW,2013-05-21 16:39:00,
2013-05-21 18:44:00,62.7,54.6,29.94,North,4,3.7,6.0,75,0.00,,,0.02,WUHU216HW,2013-05-21 16:44:00,
2013-05-21 18:49:00,63.1,55.2,29.93,NE,50,3.1,6.0,75,0.00,,,0.02,WUHU216HW,2013-05-21 16:49:00,
2013-05-21 18:54:00,63.1,55.0,29.93,NE,45,3.1,8.2,75,0.00,,,0.02,WUHU216HW,2013-05-21 16:54:00,
2013-05-21 18:59:00,62.9,54.8,29.93,ENE,68,0.0,8.2,75,0.00,,,0.02,WUHU216HW,2013-05-21 16:59:00,
2013-05-21 19:04:00,63.1,55.0,29.93,ENE,68,1.5,2.4,75,0.00,,,0.02,WUHU216HW,2013-05-21 17:04:00,
2013-05-21 19:10:00,63.1,55.0,29.93,NE,45,0.0,2.0,75,0.00,,,0.02,WUHU216HW,2013-05-21 17:10:00,
2013-05-21 19:15:00,63.1,55.0,29.92,NE,45,0.0,2.0,75,0.00,,,0.02,WUHU216HW,2013-05-21 17:15:00,
2013-05-21 19:20:00,63.1,55.0,29.92,ENE,68,1.8,2.4,75,0.00,,,0.02,WUHU216HW,2013-05-21 17:20:00,
2013-05-21 19:25:00,63.3,54.8,29.92,NE,45,0.0,2.4,74,0.00,,,0.02,WUHU216HW,2013-05-21 17:25:00,
2013-05-21 19:30:00,63.3,54.8,29.92,WNW,293,0.0,1.3,74,0.00,,,0.02,WUHU216HW,2013-05-21 17:30:00,
2013-05-21 19:35:00,63.3,55.2,29.92,East,90,0.8,1.7,75,0.00,,,0.02,WUHU216HW,2013-05-21 17:35:00,
2013-05-21 19:40:00,63.3,55.2,29.92,West,270,0.0,2.2,75,0.00,,,0.02,WUHU216HW,2013-05-21 17:40:00,
2013-05-21 19:45:00,63.3,55.2,29.93,ENE,68,3.1,3.1,75,0.00,,,0.02,WUHU216HW,2013-05-21 17:45:00,
2013-05-21 19:50:00,62.9,55.2,29.93,NE,45,2.6,5.8,76,0.02,,,0.04,WUHU216HW,2013-05-21 17:50:00,
2013-05-21 19:55:00,62.4,54.6,29.93,ENE,68,2.4,6.0,76,0.02,,,0.04,WUHU216HW,2013-05-21 17:55:00,
2013-05-21 20:00:00,62.2,54.1,29.93,ESE,113,1.5,6.0,75,0.02,,,0.04,WUHU216HW,2013-05-21 18:00:00,
2013-05-21 20:05:00,61.8,53.8,29.93,East,94,3.5,5.3,75,0.02,,,0.04,WUHU216HW,2013-05-21 18:05:00,
2013-05-21 20:10:00,61.8,54.2,29.93,ENE,68,2.9,5.3,76,0.02,,,0.04,WUHU216HW,2013-05-21 18:10:00,
2013-05-21 20:15:00,62.0,54.0,29.92,NNE,23,1.7,3.8,75,0.04,,,0.06,WUHU216HW,2013-05-21 18:15:00,
2013-05-21 20:20:00,61.7,53.6,29.92,NE,45,3.1,3.5,75,0.04,,,0.06,WUHU216HW,2013-05-21 18:20:00,
2013-05-21 20:25:00,61.7,53.3,29.91,NNE,23,2.0,4.0,74,0.04,,,0.06,WUHU216HW,2013-05-21 18:25:00,
2013-05-21 20:30:00,61.7,52.2,29.90,North,0,2.0,4.0,71,0.04,,,0.06,WUHU216HW,2013-05-21 18:30:00,
2013-05-21 20:35:00,61.7,51.4,29.89,North,0,2.4,2.4,69,0.04,,,0.06,WUHU216HW,2013-05-21 18:35:00,
2013-05-21 20:40:00,61.1,51.4,29.90,NNW,338,5.1,5.1,70,0.04,,,0.06,WUHU216HW,2013-05-21 18:40:00,
2013-05-21 20:45:00,60.9,50.8,29.90,NNE,23,0.0,5.1,68,0.04,,,0.06,WUHU216HW,2013-05-21 18:45:00,
2013-05-21 20:50:00,61.1,50.9,29.90,SSW,203,0.0,4.4,69,0.02,,,0.06,WUHU216HW,2013-05-21 18:50:00,
2013-05-21 20:55:00,61.1,51.7,29.89,SSW,203,2.2,2.2,71,0.02,,,0.06,WUHU216HW,2013-05-21 18:55:00,
2013-05-21 21:00:00,61.1,51.7,29.89,SW,225,2.4,2.4,71,0.02,,,0.06,WUHU216HW,2013-05-21 19:00:00,
2013-05-21 21:05:00,61.3,51.9,29.89,SW,225,3.5,3.5,71,0.02,,,0.06,WUHU216HW,2013-05-21 19:05:00,
2013-05-21 21:10:00,61.3,51.9,29.90,WSW,237,2.1,3.5,71,0.02,,,0.06,WUHU216HW,2013-05-21 19:10:00,
2013-05-21 21:15:00,61.1,51.7,29.90,WSW,248,0.0,3.1,71,0.00,,,0.06,WUHU216HW,2013-05-21 19:15:00,
2013-05-21 21:20:00,61.3,51.9,29.90,WNW,293,0.8,3.1,71,0.00,,,0.06,WUHU216HW,2013-05-21 19:20:00,
2013-05-21 21:25:00,61.5,52.0,29.91,NNW,334,0.7,1.5,71,0.00,,,0.06,WUHU216HW,2013-05-21 19:25:00,
2013-05-21 21:30:00,61.5,52.0,29.90,ENE,68,1.3,1.3,71,0.00,,,0.06,WUHU216HW,2013-05-21 19:30:00,
2013-05-21 21:35:00,61.5,52.0,29.90,SE,135,0.0,1.3,71,0.00,,,0.06,WUHU216HW,2013-05-21 19:35:00,
2013-05-21 21:40:00,61.5,52.0,29.90,NNE,23,0.0,0.8,71,0.00,,,0.06,WUHU216HW,2013-05-21 19:40:00,
2013-05-21 21:45:00,61.3,51.9,29.90,ESE,113,0.0,0.8,71,0.00,,,0.06,WUHU216HW,2013-05-21 19:45:00,
2013-05-21 21:50:00,61.1,52.1,29.90,ENE,68,1.1,2.0,72,0.00,,,0.06,WUHU216HW,2013-05-21 19:50:00,
2013-05-21 21:55:00,61.3,51.9,29.90,ENE,68,0.0,2.0,71,0.00,,,0.06,WUHU216HW,2013-05-21 19:55:00,
2013-05-21 22:00:00,61.3,52.2,29.90,ESE,113,0.6,0.6,72,0.00,,,0.06,WUHU216HW,2013-05-21 20:00:00,
2013-05-21 22:05:00,61.3,52.2,29.90,ENE,68,0.0,1.1,72,0.00,,,0.06,WUHU216HW,2013-05-21 20:05:00,
2013-05-21 22:10:00,61.3,52.2,29.90,East,90,0.0,1.1,72,0.00,,,0.06,WUHU216HW,2013-05-21 20:10:00,
2013-05-21 22:16:00,61.5,51.7,29.91,North,0,0.0,0.0,70,0.00,,,0.06,WUHU216HW,2013-05-21 20:16:00,
2013-05-21 22:21:00,61.5,51.7,29.91,East,90,0.0,0.0,70,0.00,,,0.06,WUHU216HW,2013-05-21 20:21:00,
2013-05-21 22:26:00,61.3,51.5,29.90,NE,45,1.7,1.7,70,0.02,,,0.08,WUHU216HW,2013-05-21 20:26:00,
2013-05-21 22:31:00,61.3,51.5,29.90,East,90,2.4,2.4,70,0.02,,,0.08,WUHU216HW,2013-05-21 20:31:00,
2013-05-21 22:36:00,61.3,52.2,29.89,NNW,338,2.4,2.4,72,0.02,,,0.08,WUHU216HW,2013-05-21 20:36:00,
2013-05-21 22:41:00,61.5,52.0,29.89,SE,135,0.0,2.4,71,0.02,,,0.08,WUHU216HW,2013-05-21 20:41:00,
2013-05-21 22:46:00,61.3,51.9,29.89,SSW,203,0.0,1.1,71,0.02,,,0.08,WUHU216HW,2013-05-21 20:46:00,
2013-05-21 22:51:00,61.5,52.0,29.89,North,0,0.0,1.1,71,0.02,,,0.08,WUHU216HW,2013-05-21 20:51:00,
2013-05-21 22:56:00,61.7,51.4,29.88,NNW,338,1.3,2.0,69,0.02,,,0.08,WUHU216HW,2013-05-21 20:56:00,
2013-05-21 23:01:00,61.5,51.7,29.88,SW,225,0.0,2.0,70,0.02,,,0.08,WUHU216HW,2013-05-21 21:01:00,
2013-05-21 23:06:00,61.3,51.5,29.88,West,270,1.5,1.5,70,0.02,,,0.08,WUHU216HW,2013-05-21 21:06:00,
2013-05-21 23:11:00,61.3,51.5,29.88,WSW,248,0.0,2.4,70,0.02,,,0.08,WUHU216HW,2013-05-21 21:11:00,
2013-05-21 23:16:00,61.1,51.7,29.87,WSW,248,0.0,2.4,71,0.02,,,0.08,WUHU216HW,2013-05-21 21:16:00,
2013-05-21 23:21:00,61.1,51.7,29.87,WSW,257,2.1,2.4,71,0.00,,,0.08,WUHU216HW,2013-05-21 21:21:00,
2013-05-21 23:26:00,61.3,51.9,29.88,South,180,1.5,3.3,71,0.00,,,0.08,WUHU216HW,2013-05-21 21:26:00,
2013-05-21 23:31:00,61.3,51.9,29.87,East,90,1.3,3.3,71,0.00,,,0.08,WUHU216HW,2013-05-21 21:31:00,
2013-05-21 23:36:00,61.3,51.9,29.87,ESE,113,0.0,2.2,71,0.00,,,0.08,WUHU216HW,2013-05-21 21:36:00,
2013-05-21 23:41:00,61.1,51.5,29.87,East,80,2.2,2.4,70,0.00,,,0.08,WUHU216HW,2013-05-21 21:41:00,
2013-05-21 23:46:00,61.1,51.7,29.87,East,90,1.3,2.4,71,0.00,,,0.08,WUHU216HW,2013-05-21 21:46:00,
2013-05-21 23:51:00,61.1,52.1,29.86,ENE,68,3.1,3.1,72,0.00,,,0.08,WUHU216HW,2013-05-21 21:51:00,
2013-05-21 23:57:00,61.3,51.5,29.86,North,0,0.8,3.1,70,0.00,,,0.08,WUHU216HW,2013-05-21 21:57:00,